| time (UTC) | temp F | wind direction | speed knots | gust knots | rain 1hr in | rain 24hr in | rain mn in | humidity % | barometer mb |
| 20260507122713 | 77 | 6 | 3.5 | 0.0 | 0.00 | 0.00 | 0.00 | 90 | 1012.3 |
| 20260507122005 | 77 | 83 | 0.0 | 0.0 | 0.00 | 0.00 | 0.00 | 90 | 1012.0 |
| 20260507121505 | 77 | 53 | 3.5 | 0.0 | 0.00 | 0.00 | 0.00 | 90 | 1012.3 |
| 20260507121006 | 77 | 89 | 0.0 | 0.0 | 0.00 | 0.00 | 0.00 | 90 | 1012.3 |
| 20260507120505 | 77 | 90 | 0.0 | 0.0 | 0.00 | 0.00 | 0.00 | 90 | 1012.3 |
| 20260507120006 | 77 | 14 | 3.5 | 0.0 | 0.00 | 0.00 | 0.00 | 90 | 1012.0 |
| 20260507115504 | 77 | 54 | 0.0 | 0.0 | 0.00 | 0.00 | 0.00 | 90 | 1011.6 |
| 20260507115005 | 77 | 55 | 3.5 | 0.0 | 0.00 | 0.00 | 0.00 | 90 | 1011.6 |
| 20260507114505 | 77 | 96 | 0.0 | 0.0 | 0.00 | 0.00 | 0.00 | 90 | 1011.6 |
| 20260507114005 | 77 | 56 | 3.5 | 0.0 | 0.00 | 0.00 | 0.00 | 90 | 1011.6 |
| 20260507113711 | 77 | 92 | 0.0 | 0.0 | 0.00 | 0.00 | 0.00 | 90 | 1011.6 |
| 20260507113005 | 77 | 79 | 3.5 | 0.0 | 0.00 | 0.00 | 0.00 | 90 | 1011.6 |
| 20260507112711 | 77 | 68 | 0.0 | 0.0 | 0.00 | 0.00 | 0.00 | 90 | 1011.6 |
| 20260507112005 | 77 | 54 | 3.5 | 0.0 | 0.00 | 0.00 | 0.00 | 90 | 1011.6 |
| 20260507111506 | 77 | 59 | 3.5 | 0.0 | 0.00 | 0.00 | 0.00 | 90 | 1011.3 |
| 20260507111005 | 77 | 67 | 0.0 | 0.0 | 0.00 | 0.00 | 0.00 | 90 | 1011.3 |
| 20260507110505 | 77 | 68 | 0.0 | 0.0 | 0.00 | 0.00 | 0.00 | 90 | 1011.3 |
| 20260507110212 | 77 | 73 | 0.0 | 0.0 | 0.00 | 0.00 | 0.00 | 90 | 1011.6 |
| 20260507105504 | 77 | 32 | 3.5 | 0.0 | 0.00 | 0.00 | 0.00 | 90 | 1011.3 |
| 20260507105005 | 77 | 25 | 3.5 | 0.0 | 0.00 | 0.00 | 0.00 | 90 | 1010.6 |
| 20260507104505 | 77 | 79 | 0.0 | 0.0 | 0.00 | 0.00 | 0.00 | 90 | 1010.6 |
| 20260507104005 | 77 | 86 | 0.0 | 0.0 | 0.00 | 0.00 | 0.00 | 90 | 1011.0 |
| 20260507103505 | 77 | 77 | 0.0 | 0.0 | 0.00 | 0.00 | 0.00 | 90 | 1011.3 |
| 20260507103005 | 77 | 85 | 0.0 | 0.0 | 0.00 | 0.00 | 0.00 | 90 | 1011.3 |
| 20260507102505 | 77 | 88 | 0.0 | 0.0 | 0.00 | 0.00 | 0.00 | 90 | 1011.6 |
| 20260507102007 | 77 | 7 | 3.5 | 0.0 | 0.00 | 0.00 | 0.00 | 90 | 1011.6 |
| 20260507101507 | 77 | 127 | 0.0 | 0.0 | 0.00 | 0.00 | 0.00 | 90 | 1011.6 |
| 20260507101004 | 77 | 85 | 0.0 | 0.0 | 0.00 | 0.00 | 0.00 | 90 | 1011.3 |
| 20260507100713 | 77 | 107 | 0.0 | 0.0 | 0.00 | 0.00 | 0.00 | 90 | 1011.6 |
| 20260507100005 | 77 | 93 | 0.0 | 0.0 | 0.00 | 0.00 | 0.00 | 90 | 1011.3 |
| 20260507095504 | 77 | 110 | 0.0 | 0.0 | 0.00 | 0.00 | 0.00 | 90 | 1010.6 |
| 20260507095005 | 77 | 95 | 0.0 | 0.0 | 0.00 | 0.00 | 0.00 | 90 | 1010.6 |
| 20260507094505 | 77 | 86 | 0.0 | 0.0 | 0.00 | 0.00 | 0.00 | 90 | 1011.0 |
| 20260507094005 | 77 | 289 | 3.5 | 0.0 | 0.00 | 0.00 | 0.00 | 90 | 1011.3 |
| 20260507093505 | 77 | 292 | 3.5 | 0.0 | 0.00 | 0.00 | 0.00 | 90 | 1011.0 |
| 20260507093005 | 77 | 98 | 0.0 | 0.0 | 0.00 | 0.00 | 0.00 | 90 | 1010.3 |
| 20260507092505 | 77 | 66 | 0.0 | 0.0 | 0.00 | 0.00 | 0.00 | 89 | 1010.6 |
| 20260507092005 | 77 | 68 | 0.0 | 0.0 | 0.00 | 0.00 | 0.00 | 89 | 1010.6 |
| 20260507091505 | 77 | 85 | 3.5 | 0.0 | 0.00 | 0.00 | 0.00 | 89 | 1011.0 |
| 20260507091004 | 77 | 64 | 0.0 | 0.0 | 0.00 | 0.00 | 0.00 | 89 | 1011.0 |
| 20260507090505 | 77 | 87 | 3.5 | 0.0 | 0.00 | 0.00 | 0.00 | 89 | 1011.0 |
| 20260507090006 | 77 | 94 | 0.0 | 0.0 | 0.00 | 0.00 | 0.00 | 88 | 1011.3 |
| 20260507085505 | 77 | 29 | 7.8 | 0.0 | 0.00 | 0.00 | 0.00 | 88 | 1011.3 |
| 20260507085211 | 77 | 87 | 3.5 | 0.0 | 0.00 | 0.00 | 0.00 | 88 | 1011.3 |
| 20260507084505 | 77 | 59 | 0.0 | 0.0 | 0.00 | 0.00 | 0.00 | 88 | 1011.3 |
| 20260507084213 | 78 | 50 | 0.0 | 0.0 | 0.00 | 0.00 | 0.00 | 88 | 1011.6 |
| 20260507083505 | 78 | 13 | 3.5 | 0.0 | 0.00 | 0.00 | 0.00 | 88 | 1011.6 |
| 20260507083005 | 78 | 56 | 0.0 | 0.0 | 0.00 | 0.00 | 0.00 | 87 | 1011.6 |
| 20260507082505 | 78 | 44 | 3.5 | 0.0 | 0.00 | 0.00 | 0.00 | 87 | 1011.6 |
| 20260507082005 | 78 | 61 | 3.5 | 0.0 | 0.00 | 0.00 | 0.00 | 87 | 1011.6 |
| 20260507081505 | 78 | 84 | 0.0 | 0.0 | 0.00 | 0.00 | 0.00 | 87 | 1011.6 |
| 20260507081005 | 78 | 79 | 0.0 | 0.0 | 0.00 | 0.00 | 0.00 | 87 | 1012.0 |
| 20260507080505 | 78 | 91 | 0.0 | 0.0 | 0.00 | 0.00 | 0.00 | 87 | 1012.0 |
| 20260507080005 | 78 | 89 | 0.0 | 0.0 | 0.00 | 0.00 | 0.00 | 87 | 1012.0 |
| 20260507075504 | 78 | 77 | 0.0 | 0.0 | 0.00 | 0.00 | 0.00 | 87 | 1011.6 |
| 20260507075005 | 78 | 85 | 0.0 | 0.0 | 0.00 | 0.00 | 0.00 | 87 | 1012.0 |
| 20260507074505 | 78 | 80 | 0.0 | 0.0 | 0.00 | 0.00 | 0.00 | 87 | 1012.0 |
| 20260507074005 | 78 | 72 | 0.0 | 0.0 | 0.00 | 0.00 | 0.00 | 87 | 1012.0 |
| 20260507073505 | 78 | 52 | 3.5 | 0.0 | 0.00 | 0.00 | 0.00 | 87 | 1012.0 |
| 20260507073005 | 78 | 96 | 0.0 | 0.0 | 0.00 | 0.00 | 0.00 | 87 | 1012.0 |
| 20260507072505 | 78 | 96 | 3.5 | 0.0 | 0.00 | 0.00 | 0.00 | 87 | 1012.0 |
| 20260507072006 | 78 | 65 | 0.0 | 0.0 | 0.00 | 0.00 | 0.00 | 87 | 1011.6 |
| 20260507071505 | 77 | 98 | 0.0 | 0.0 | 0.00 | 0.00 | 0.00 | 87 | 1011.6 |
| 20260507071005 | 78 | 101 | 0.0 | 0.0 | 0.00 | 0.00 | 0.00 | 87 | 1011.6 |
| 20260507070505 | 78 | 98 | 0.0 | 0.0 | 0.00 | 0.00 | 0.00 | 87 | 1011.6 |
| 20260507070009 | 78 | 46 | 3.5 | 0.0 | 0.00 | 0.00 | 0.00 | 87 | 1012.0 |
| 20260507065505 | 78 | 83 | 0.0 | 0.0 | 0.00 | 0.00 | 0.00 | 86 | 1011.6 |
| 20260507065005 | 78 | 60 | 3.5 | 0.0 | 0.00 | 0.00 | 0.00 | 86 | 1012.0 |
| 20260507064505 | 78 | 69 | 0.0 | 0.0 | 0.00 | 0.00 | 0.00 | 86 | 1012.0 |
| 20260507064005 | 78 | 84 | 0.0 | 0.0 | 0.00 | 0.00 | 0.00 | 86 | 1012.0 |
| 20260507063505 | 78 | 69 | 3.5 | 0.0 | 0.00 | 0.00 | 0.00 | 86 | 1012.0 |
| 20260507063212 | 78 | 83 | 0.0 | 0.0 | 0.00 | 0.00 | 0.00 | 85 | 1012.0 |
| 20260507062506 | 78 | 84 | 3.5 | 0.0 | 0.00 | 0.00 | 0.00 | 85 | 1012.0 |
| 20260507062004 | 78 | 83 | 0.0 | 0.0 | 0.00 | 0.00 | 0.00 | 85 | 1011.6 |
| 20260507061505 | 78 | 69 | 0.0 | 0.0 | 0.00 | 0.00 | 0.00 | 85 | 1012.0 |
| 20260507061005 | 78 | 69 | 0.0 | 0.0 | 0.00 | 0.00 | 0.00 | 85 | 1012.0 |
| 20260507060505 | 78 | 62 | 3.5 | 0.0 | 0.00 | 0.00 | 0.00 | 85 | 1012.0 |
| 20260507060005 | 78 | 74 | 0.0 | 0.0 | 0.00 | 0.00 | 0.00 | 85 | 1012.0 |
| 20260507055713 | 78 | 74 | 0.0 | 0.0 | 0.00 | 0.00 | 0.00 | 85 | 1012.3 |
| 20260507055005 | 78 | 77 | 0.0 | 0.0 | 0.00 | 0.00 | 0.00 | 85 | 1012.3 |
| 20260507054505 | 78 | 75 | 0.0 | 0.0 | 0.00 | 0.00 | 0.00 | 85 | 1012.0 |
| 20260507054005 | 78 | 72 | 3.5 | 0.0 | 0.00 | 0.00 | 0.00 | 85 | 1012.0 |
| 20260507053505 | 78 | 73 | 0.0 | 0.0 | 0.00 | 0.00 | 0.00 | 85 | 1012.3 |
| 20260507053005 | 78 | 76 | 0.0 | 0.0 | 0.00 | 0.00 | 0.00 | 85 | 1012.0 |
| 20260507052505 | 78 | 95 | 0.0 | 0.0 | 0.00 | 0.00 | 0.00 | 85 | 1012.0 |
| 20260507052005 | 78 | 44 | 0.0 | 0.0 | 0.00 | 0.00 | 0.00 | 85 | 1012.3 |
| 20260507051505 | 78 | 79 | 0.0 | 0.0 | 0.00 | 0.00 | 0.00 | 85 | 1012.0 |
| 20260507050505 | 78 | 94 | 0.0 | 0.0 | 0.00 | 0.00 | 0.00 | 86 | 1012.0 |
| 20260507045713 | 78 | 71 | 0.0 | 0.0 | 0.00 | 0.00 | 0.00 | 86 | 1012.0 |
| 20260507045212 | 78 | 67 | 0.0 | 0.0 | 0.00 | 0.00 | 0.00 | 86 | 1012.0 |
| 20260507044505 | 78 | 14 | 7.8 | 0.0 | 0.00 | 0.00 | 0.00 | 86 | 1012.0 |
| 20260507044005 | 78 | 87 | 0.0 | 0.0 | 0.00 | 0.00 | 0.00 | 86 | 1012.0 |
| 20260507043505 | 78 | 56 | 7.8 | 0.0 | 0.00 | 0.00 | 0.00 | 86 | 1012.0 |
| 20260507043005 | 78 | 94 | 0.0 | 0.0 | 0.00 | 0.00 | 0.00 | 86 | 1011.6 |
| 20260507042505 | 78 | 83 | 0.0 | 0.0 | 0.00 | 0.00 | 0.00 | 85 | 1012.0 |
| 20260507042005 | 78 | 72 | 3.5 | 0.0 | 0.00 | 0.00 | 0.00 | 85 | 1012.0 |
| 20260507041504 | 78 | 46 | 0.0 | 0.0 | 0.00 | 0.00 | 0.00 | 85 | 1011.6 |
| 20260507041005 | 78 | 350 | 11.3 | 0.0 | 0.00 | 0.00 | 0.00 | 85 | 1011.3 |
| 20260507040505 | 78 | 63 | 3.5 | 0.0 | 0.00 | 0.00 | 0.00 | 86 | 1011.3 |
| 20260507040005 | 78 | 69 | 3.5 | 0.0 | 0.00 | 0.00 | 0.00 | 86 | 1011.3 |
| 20260507035505 | 78 | 77 | 7.8 | 0.0 | 0.00 | 0.00 | 0.00 | 85 | 1011.3 |
| 20260507035005 | 78 | 50 | 0.0 | 0.0 | 0.00 | 0.00 | 0.00 | 85 | 1011.3 |
| 20260507034713 | 78 | 74 | 3.5 | 0.0 | 0.00 | 0.00 | 0.00 | 85 | 1011.3 |
| 20260507034005 | 78 | 71 | 0.0 | 0.0 | 0.00 | 0.00 | 0.00 | 84 | 1011.0 |
| 20260507033505 | 78 | 76 | 0.0 | 0.0 | 0.00 | 0.00 | 0.00 | 84 | 1011.3 |
| 20260507033005 | 78 | 81 | 3.5 | 0.0 | 0.00 | 0.00 | 0.00 | 84 | 1011.0 |
| 20260507032505 | 78 | 73 | 0.0 | 0.0 | 0.00 | 0.00 | 0.00 | 84 | 1011.0 |
| 20260507032005 | 79 | 27 | 3.5 | 0.0 | 0.00 | 0.00 | 0.00 | 83 | 1011.0 |
| 20260507031712 | 79 | 59 | 3.5 | 0.0 | 0.00 | 0.00 | 0.00 | 83 | 1011.0 |
| 20260507031005 | 79 | 81 | 3.5 | 0.0 | 0.00 | 0.00 | 0.00 | 82 | 1011.0 |
| 20260507030505 | 80 | 57 | 7.8 | 0.0 | 0.00 | 0.00 | 0.00 | 82 | 1010.6 |
| 20260507030005 | 80 | 76 | 3.5 | 0.0 | 0.00 | 0.00 | 0.00 | 81 | 1010.6 |
| 20260507025505 | 80 | 26 | 15.6 | 0.0 | 0.00 | 0.00 | 0.00 | 81 | 1010.3 |
| 20260507025005 | 80 | 61 | 0.0 | 0.0 | 0.00 | 0.00 | 0.00 | 80 | 1010.3 |
| 20260507024712 | 80 | 84 | 0.0 | 0.0 | 0.00 | 0.00 | 0.00 | 80 | 1009.9 |
| 20260507024213 | 80 | 54 | 3.5 | 0.0 | 0.00 | 0.00 | 0.00 | 79 | 1009.9 |
| 20260507023505 | 80 | 36 | 3.5 | 0.0 | 0.00 | 0.00 | 0.00 | 79 | 1009.9 |
| 20260507023005 | 80 | 78 | 3.5 | 0.0 | 0.00 | 0.00 | 0.00 | 78 | 1009.9 |
| 20260507022505 | 80 | 44 | 3.5 | 0.0 | 0.00 | 0.00 | 0.00 | 78 | 1009.6 |
| 20260507022212 | 81 | 79 | 0.0 | 0.0 | 0.00 | 0.00 | 0.00 | 77 | 1009.6 |
| 20260507021505 | 81 | 48 | 7.8 | 0.0 | 0.00 | 0.00 | 0.00 | 77 | 1009.6 |
| 20260507021004 | 81 | 84 | 3.5 | 0.0 | 0.00 | 0.00 | 0.00 | 76 | 1009.3 |
| 20260507020505 | 81 | 109 | 3.5 | 0.0 | 0.00 | 0.00 | 0.00 | 76 | 1009.3 |
| 20260507020005 | 82 | 65 | 7.8 | 0.0 | 0.00 | 0.00 | 0.00 | 75 | 1009.3 |
| 20260507015505 | 82 | 91 | 3.5 | 0.0 | 0.00 | 0.00 | 0.00 | 75 | 1008.9 |
| 20260507015005 | 82 | 66 | 3.5 | 0.0 | 0.00 | 0.00 | 0.00 | 74 | 1008.9 |
| 20260507014505 | 82 | 65 | 3.5 | 0.0 | 0.00 | 0.00 | 0.00 | 74 | 1008.9 |
| 20260507014212 | 82 | 39 | 3.5 | 0.0 | 0.00 | 0.00 | 0.00 | 74 | 1008.6 |
| 20260507013505 | 82 | 78 | 0.0 | 0.0 | 0.00 | 0.00 | 0.00 | 74 | 1008.6 |
| 20260507013005 | 83 | 48 | 11.3 | 0.0 | 0.00 | 0.00 | 0.00 | 73 | 1008.6 |
| 20260507012713 | 83 | 56 | 7.8 | 0.0 | 0.00 | 0.00 | 0.00 | 73 | 1008.2 |
| 20260507012005 | 83 | 70 | 11.3 | 0.0 | 0.00 | 0.00 | 0.00 | 73 | 1008.2 |
| 20260507011505 | 83 | 42 | 7.8 | 0.0 | 0.00 | 0.00 | 0.00 | 72 | 1008.2 |
| 20260507010505 | 83 | 35 | 15.6 | 0.0 | 0.00 | 0.00 | 0.00 | 72 | 1007.9 |
| 20260507010005 | 83 | 359 | 11.3 | 0.0 | 0.00 | 0.00 | 0.00 | 71 | 1007.9 |
| 20260507005505 | 83 | 20 | 3.5 | 0.0 | 0.00 | 0.00 | 0.00 | 71 | 1007.2 |
| 20260507005212 | 83 | 61 | 7.8 | 0.0 | 0.00 | 0.00 | 0.00 | 71 | 1007.6 |
| 20260507004711 | 84 | 326 | 11.3 | 0.0 | 0.00 | 0.00 | 0.00 | 71 | 1007.6 |
| 20260507004005 | 84 | 76 | 3.5 | 0.0 | 0.00 | 0.00 | 0.00 | 71 | 1007.6 |
| 20260507003505 | 84 | 42 | 3.5 | 0.0 | 0.00 | 0.00 | 0.00 | 70 | 1007.2 |
| 20260507003212 | 84 | 4 | 7.8 | 0.0 | 0.00 | 0.00 | 0.00 | 70 | 1007.6 |
| 20260507002505 | 85 | 57 | 3.5 | 0.0 | 0.00 | 0.00 | 0.00 | 69 | 1007.2 |
| 20260507002005 | 85 | 84 | 7.8 | 0.0 | 0.00 | 0.00 | 0.00 | 69 | 1007.2 |
| 20260507001505 | 85 | 81 | 0.0 | 0.0 | 0.00 | 0.00 | 0.00 | 69 | 1006.9 |
| 20260507001005 | 85 | 47 | 11.3 | 0.0 | 0.00 | 0.00 | 0.00 | 68 | 1006.9 |
| 20260507000505 | 86 | 311 | 7.8 | 0.0 | 0.00 | 0.00 | 0.00 | 67 | 1006.9 |
| 20260507000005 | 86 | 98 | 11.3 | 0.0 | 0.00 | 0.00 | 0.00 | 66 | 1006.9 |
| 20260506235504 | 86 | 123 | 3.5 | 0.0 | 0.00 | 0.00 | 0.00 | 65 | 1006.9 |
| 20260506235212 | 86 | 32 | 11.3 | 0.0 | 0.00 | 0.00 | 0.00 | 65 | 1006.9 |
| 20260506234504 | 86 | 323 | 11.3 | 0.0 | 0.00 | 0.00 | 0.00 | 65 | 1006.5 |
| 20260506234005 | 88 | 53 | 7.8 | 0.0 | 0.00 | 0.00 | 0.00 | 62 | 1006.2 |
| 20260506233505 | 89 | 44 | 3.5 | 0.0 | 0.00 | 0.00 | 0.00 | 55 | 1006.2 |
| 20260506233005 | 89 | 73 | 0.0 | 0.0 | 0.00 | 0.00 | 0.00 | 53 | 1006.5 |
| 20260506232505 | 89 | 276 | 7.8 | 0.0 | 0.00 | 0.00 | 0.00 | 53 | 1006.2 |
| 20260506232005 | 89 | 75 | 0.0 | 0.0 | 0.00 | 0.00 | 0.00 | 54 | 1006.2 |
| 20260506231505 | 89 | 324 | 7.8 | 0.0 | 0.00 | 0.00 | 0.00 | 53 | 1005.9 |
| 20260506231005 | 90 | 51 | 3.5 | 0.0 | 0.00 | 0.00 | 0.00 | 54 | 1006.2 |
| 20260506230505 | 90 | 99 | 0.0 | 0.0 | 0.00 | 0.00 | 0.00 | 52 | 1006.2 |
| 20260506230005 | 90 | 49 | 7.8 | 0.0 | 0.00 | 0.00 | 0.00 | 51 | 1006.2 |
| 20260506225505 | 90 | 68 | 3.5 | 0.0 | 0.00 | 0.00 | 0.00 | 51 | 1005.9 |
| 20260506225005 | 90 | 106 | 0.0 | 0.0 | 0.00 | 0.00 | 0.00 | 51 | 1006.2 |
| 20260506224505 | 90 | 39 | 7.8 | 0.0 | 0.00 | 0.00 | 0.00 | 51 | 1005.9 |
| 20260506224005 | 90 | 126 | 0.0 | 0.0 | 0.00 | 0.00 | 0.00 | 50 | 1006.2 |
| 20260506223506 | 90 | 18 | 3.5 | 0.0 | 0.00 | 0.00 | 0.00 | 51 | 1006.2 |
| 20260506223005 | 91 | 69 | 0.0 | 0.0 | 0.00 | 0.00 | 0.00 | 49 | 1005.9 |
| 20260506222505 | 91 | 90 | 3.5 | 0.0 | 0.00 | 0.00 | 0.00 | 48 | 1005.9 |
| 20260506222005 | 91 | 186 | 3.5 | 0.0 | 0.00 | 0.00 | 0.00 | 49 | 1006.2 |
| 20260506221505 | 90 | 302 | 3.5 | 0.0 | 0.00 | 0.00 | 0.00 | 50 | 1005.9 |
| 20260506221213 | 91 | 221 | 3.5 | 0.0 | 0.00 | 0.00 | 0.00 | 48 | 1006.2 |
| 20260506220505 | 92 | 105 | 3.5 | 0.0 | 0.00 | 0.00 | 0.00 | 49 | 1006.2 |
| 20260506220005 | 91 | 63 | 3.5 | 0.0 | 0.00 | 0.00 | 0.00 | 48 | 1006.2 |
| 20260506215507 | 91 | 153 | 3.5 | 0.0 | 0.00 | 0.00 | 0.00 | 50 | 1006.2 |
| 20260506143505 | 79 | 67 | 0.0 | 0.0 | 0.00 | 0.00 | 0.00 | 80 | 1009.3 |
| 20260506143212 | 78 | 66 | 0.0 | 0.0 | 0.00 | 0.00 | 0.00 | 81 | 1009.6 |
| 20260506142505 | 78 | 151 | 3.5 | 0.0 | 0.00 | 0.00 | 0.00 | 81 | 1009.3 |
| 20260506142005 | 77 | 59 | 3.5 | 0.0 | 0.00 | 0.00 | 0.00 | 81 | 1009.3 |
| 20260506141711 | 77 | 101 | 7.8 | 0.0 | 0.00 | 0.00 | 0.00 | 82 | 1009.3 |
| 20260506141005 | 77 | 141 | 15.6 | 0.0 | 0.00 | 0.00 | 0.00 | 81 | 1009.3 |
| 20260506140505 | 77 | 110 | 7.8 | 0.0 | 0.00 | 0.00 | 0.00 | 81 | 1009.3 |
| 20260506140005 | 78 | 166 | 11.3 | 0.0 | 0.00 | 0.00 | 0.00 | 81 | 1009.6 |
| 20260506135713 | 77 | 34 | 3.5 | 0.0 | 0.00 | 0.00 | 0.00 | 81 | 1009.3 |
| 20260506135005 | 77 | 166 | 3.5 | 0.0 | 0.00 | 0.00 | 0.00 | 82 | 1009.6 |
| 20260506134505 | 77 | 118 | 0.0 | 0.0 | 0.00 | 0.00 | 0.00 | 82 | 1009.3 |
| 20260506134004 | 77 | 129 | 0.0 | 0.0 | 0.00 | 0.00 | 0.00 | 83 | 1009.3 |
| 20260506133505 | 77 | 92 | 3.5 | 0.0 | 0.00 | 0.00 | 0.00 | 83 | 1009.6 |
| 20260506133005 | 77 | 114 | 0.0 | 0.0 | 0.00 | 0.00 | 0.00 | 84 | 1009.3 |
| 20260506132505 | 77 | 147 | 3.5 | 0.0 | 0.00 | 0.00 | 0.00 | 84 | 1009.3 |
| 20260506132005 | 77 | 140 | 7.8 | 0.0 | 0.00 | 0.00 | 0.00 | 84 | 1009.3 |
| 20260506131505 | 77 | 124 | 0.0 | 0.0 | 0.00 | 0.00 | 0.00 | 84 | 1008.9 |
| 20260506131005 | 77 | 162 | 3.5 | 0.0 | 0.00 | 0.00 | 0.00 | 85 | 1008.9 |
| 20260506130505 | 77 | 21 | 11.3 | 0.0 | 0.00 | 0.00 | 0.00 | 85 | 1008.9 |
| 20260506130005 | 76 | 120 | 3.5 | 0.0 | 0.00 | 0.00 | 0.00 | 86 | 1008.9 |
| 20260506125505 | 76 | 85 | 0.0 | 0.0 | 0.00 | 0.00 | 0.00 | 87 | 1008.9 |
| 20260506125005 | 76 | 141 | 0.0 | 0.0 | 0.00 | 0.00 | 0.00 | 87 | 1008.9 |
| 20260506124713 | 76 | 123 | 0.0 | 0.0 | 0.00 | 0.00 | 0.00 | 87 | 1008.9 |
| 20260506124005 | 76 | 121 | 0.0 | 0.0 | 0.00 | 0.00 | 0.00 | 87 | 1008.9 |
| 20260506123505 | 77 | 88 | 0.0 | 0.0 | 0.00 | 0.00 | 0.00 | 87 | 1008.6 |
| 20260506123212 | 77 | 86 | 3.5 | 0.0 | 0.00 | 0.00 | 0.00 | 86 | 1008.6 |